Location: Martz Observatory
(42.0083°N, 79.0667°W)
Time: 03:05:47
(UTC-04:00)

NOSS 3-1 (C) - Pass Details

Date: 26 May 2018
Orbit: 804 x 1404 km, 63.4° (Epoch: 20 June)

Event Time Altitude Azimuth Distance (km) Brightness Sun altitude
Exits shadow 01:56:13 66° 149° (SSE) 966 3.2 -26.1°
Maximum altitude 01:56:39 69° 121° (ESE) 955 3.3 -26.1°
Drops below altitude 10° 02:02:56 10° 39° (NE) 2,748 6.7 -25.8°
Sets 02:05:42 0° 38° (NE) 3,792 7.6 -25.7°
